Weather Roundup
Issued by NWS Chicago, IL

Home | Current Version | Previous Version | Graphics & Text | Print | Product List | Glossary On
Versions: 1 2 3 4 5 6 7 8 9 10 11 12 13 14 15 16 17 18 19 20 21 22 23 24 25 26 27 28 29 30 31 32 33 34 35 36 37 38 39 40 41 42 43 44 45 46 47 48 49 50
000
NZUS59 KLOT 221400
HRRLOT

CHICAGO AREA WEATHER ROUNDUP
NATIONAL WEATHER SERVICE CHICAGO/ROMEOVILLE IL
900 AM CDT MON SEP 22 2014

NOTE: "FAIR" INDICATES FEW OR NO CLOUDS BELOW 12,000 FEET WITH NO
SIGNIFICANT WEATHER AND/OR OBSTRUCTIONS TO VISIBILITY.

* THESE STATIONS ARE NOT UNDER NWS QUALITY CONTROL. THEY ALSO MAY NOT
  REPORT WEATHER SUCH AS PRECIPITATION OR FOG.

ILZ005-006-012>014-019>023-221500-
NORTHEAST ILLINOIS

CITY           SKY/WX    TMP DP  RH WIND       PRES   REMARKS
OHARE          MOSUNNY   51  40  65 NW6       30.27R
MIDWAY         MOSUNNY   54  44  69 NW7       30.27R
AURORA         SUNNY     51  44  77 N6        30.29R
LANSING*       SUNNY     54  46  75 N6        30.26F
WAUKEGAN       SUNNY     51  42  71 W5        30.27R
DUPAGE AIRPORT SUNNY     52  43  71 N6        30.28R
WHEELING       SUNNY     54  43  66 NW6       30.29R
NORTHERLY IS     N/A     55  45  68 NW8         N/A
$$

WIZ051-052-058>065-066-070>072-221500-
SOUTHEAST WISCONSIN

CITY           SKY/WX    TMP DP  RH WIND       PRES   REMARKS
MILWAUKEE      SUNNY     51  41  68 W6        30.27R
KENOSHA*       SUNNY     50  43  77 NW6       30.28R
RACINE*        SUNNY     51  42  71 NW5       30.29R
WAUKESHA       SUNNY     48  43  81 W8        30.28R
$$

INZ001>003-010>013-019-020-221500-
NORTHWEST INDIANA

CITY           SKY/WX    TMP DP  RH WIND       PRES   REMARKS
GARY*          MOSUNNY   57  45  62 N7        30.26R
MICHIGAN CITY* NOT AVBL
RENSSELAER*    NOT AVBL
VALPARAISO     MOSUNNY   50  43  77 CALM      30.27R
$$

LMZ740>746-221500-
SOUTHERN LAKE MICHIGAN

STATION/POSITION TIME  SKY/WX   TEMP WIND        PRES    VSBY
                                AIR  DIR/SP/G
                 (UTC)          (F)  (DEG/KT/KT) (MB)    (MI)
HARRISON CRIB    1300            52  330/ 13/ 15   N/A
BURNHAM HARBOR   1400            55  330/  5/ 10   N/A
CALUMET HARBOR   1300            53  290/  3/  5 1023.4R
BURNS HARBOR     NOT AVBL
MICHIGAN CITY    1300            49   90/  4/  5   N/A
$$

ABBREVIATIONS USED IN REMARKS
   TC - TEMPERATURE IN CELSIUS
  WCI - WIND CHILL INDEX
   HX - HEAT INDEX
  VSB - VISIBILITY
$$



USA.gov is the U.S. government's official web portal to all federal, state and local government web resources and services.